Martinsburg, WV

12:18 AM EDT on July 27, 2017 (GMT -0400)
Eastern W Va Regional-Shepherd

Weather History for KMRB - October, 2013

Change the Weather History Date:

Sunday, October 13, 2013

  Actual Average Record
Temperature  
Mean Temperature 58 °F 55 °F  
Max Temperature 59 °F 66 °F 90 °F (1954)
Min Temperature 57 °F 43 °F 27 °F (1957)
Degree Days  
Heating Degree Days 7 11  
Month to date heating degree days 46 113  
Since 1 July heating degree days 146 204  
Cooling Degree Days 0 0  
Month to date cooling degree days 40 8  
Year to date cooling degree days 1057 893  
Growing Degree Days 8 (Base 50)    
Moisture  
Dew Point 55 °F    
Average Humidity 90    
Maximum Humidity 93    
Minimum Humidity 86    
Precipitation  
Precipitation 0.54 in 0.10 in 3.50 in (1990)
Month to date precipitation 5.27 1.32  
Year to date precipitation 28.89 31.13  
Sea Level Pressure  
Sea Level Pressure 30.29 in    
Wind  
Wind Speed 4 mph (NNE)    
Max Wind Speed 12 mph    
Max Gust Speed 14 mph    
Visibility 4 miles    
Events Rain    
T = Trace of Precipitation, MM = Missing Value Source: NWS Daily Summary

Daily Weather History Graph

Daily Weather History Graph

Search for Another Location

Airport or City:

Trip Planner

Search our weather history database for the weather conditions in past years. The results will help you decide how hot, cold, wet, or windy it might be!

Date:

Astronomy

Oct. 13, 2013 Rise Set
Actual Time 7:20 AM EDT 6:35 PM EDT
Civil Twilight 6:53 AM EDT 7:02 PM EDT
Nautical Twilight 6:21 AM EDT 7:33 PM EDT
Astronomical Twilight 5:50 AM EDT 8:04 PM EDT
Moon 3:24 PM EDT (10/13) 1:29 AM EDT (10/13)
Length of Visible Light 12h 09m
Length of Day
11h 15m
Waxing Gibbous, 69% of the Moon is Illuminated
Oct 13
Waxing Gibbous
Oct 18
Full
Oct 26
Last Quarter
Nov 3
New
Nov 10
First Quarter

Hourly Weather History & Observations

Time (EDT) Temp. Dew Point Humidity Pressure Visibility Wind Dir Wind Speed Gust Speed Precip Events Conditions
12:53 AM 57.9 °F 55.9 °F 93% 30.21 in 5.0 mi Calm Calm - 0.06 in Rain Light Rain
1:19 AM 57.2 °F 55.4 °F 94% 30.21 in 3.0 mi NNW 4.6 mph - 0.02 in Rain Light Rain
1:38 AM 57.2 °F 55.4 °F 94% 30.22 in 2.5 mi North 6.9 mph - 0.05 in Rain Light Rain
1:45 AM 59.0 °F 55.4 °F 88% 30.22 in 4.0 mi North 6.9 mph - 0.05 in Rain Light Rain
1:53 AM 57.9 °F 55.9 °F 93% 30.22 in 3.0 mi North 8.1 mph - 0.06 in Rain Light Rain
2:09 AM 57.2 °F 55.4 °F 94% 30.22 in 4.0 mi North 8.1 mph - 0.00 in Rain Light Rain
2:53 AM 57.0 °F 55.0 °F 93% 30.22 in 6.0 mi NNE 8.1 mph - 0.01 in   Overcast
3:53 AM 57.0 °F 54.0 °F 89% 30.21 in 4.0 mi North 6.9 mph - 0.01 in   Overcast
4:15 AM 57.2 °F 53.6 °F 88% 30.21 in 7.0 mi North 5.8 mph - 0.00 in   Overcast
4:53 AM 57.0 °F 54.0 °F 89% 30.22 in 10.0 mi North 5.8 mph - 0.00 in   Overcast
5:35 AM 57.2 °F 53.6 °F 88% 30.23 in 10.0 mi North 6.9 mph - N/A   Overcast
5:53 AM 57.0 °F 55.0 °F 93% 30.24 in 8.0 mi North 6.9 mph - N/A   Overcast
6:12 AM 57.2 °F 55.4 °F 94% 30.24 in 6.0 mi North 8.1 mph - N/A   Overcast
6:27 AM 57.2 °F 55.4 °F 94% 30.25 in 3.0 mi NNE 6.9 mph - 0.00 in Rain Light Rain
6:38 AM 57.2 °F 55.4 °F 94% 30.25 in 4.0 mi NNE 9.2 mph - 0.00 in   Overcast
6:53 AM 57.0 °F 55.0 °F 93% 30.25 in 4.0 mi North 6.9 mph - 0.01 in Rain Light Rain
7:04 AM 57.2 °F 55.4 °F 94% 30.26 in 2.0 mi North 8.1 mph - 0.01 in Rain Light Rain
7:14 AM 57.2 °F 55.4 °F 94% 30.26 in 5.0 mi North 5.8 mph - 0.02 in   Overcast
7:53 AM 57.0 °F 55.0 °F 93% 30.27 in 4.0 mi NNE 8.1 mph - 0.02 in Rain Light Rain
8:53 AM 57.9 °F 55.0 °F 90% 30.30 in 2.0 mi NNE 6.9 mph - 0.00 in Rain Light Rain
9:00 AM 57.2 °F 55.4 °F 94% 30.30 in 1.0 mi NNE 5.8 mph - 0.05 in Rain Rain
9:08 AM 57.2 °F 55.4 °F 94% 30.30 in 0.8 mi NNE 5.8 mph - 0.11 in Rain Heavy Rain
9:15 AM 57.2 °F 55.4 °F 94% 30.30 in 1.0 mi North 5.8 mph - 0.17 in Rain Heavy Rain
9:53 AM 57.0 °F 55.0 °F 93% 30.32 in 1.2 mi NNE 3.5 mph - 0.37 in Rain Heavy Rain
10:32 AM 57.2 °F 55.4 °F 94% 30.32 in 3.0 mi NNE 5.8 mph - 0.06 in Rain Light Rain
10:46 AM 57.2 °F 55.4 °F 94% 30.33 in 6.0 mi NNE 5.8 mph - 0.06 in   Overcast
10:53 AM 57.9 °F 55.9 °F 93% 30.32 in 6.0 mi NNE 5.8 mph - 0.06 in   Overcast
11:13 AM 57.2 °F 55.4 °F 94% 30.32 in 5.0 mi North 5.8 mph - N/A   Overcast
11:49 AM 57.2 °F 55.4 °F 94% 30.32 in 2.5 mi North 5.8 mph - 0.00 in Rain Light Rain
11:53 AM 59.0 °F 55.9 °F 90% 30.32 in 3.0 mi NNE 6.9 mph - 0.00 in Rain Light Rain
12:20 PM 59.0 °F 55.4 °F 88% 30.33 in 2.5 mi NNE 5.8 mph - 0.00 in Rain Light Rain
12:30 PM 57.2 °F 55.4 °F 94% 30.32 in 2.0 mi NNE 11.5 mph - 0.00 in Rain Light Rain
12:35 PM 57.2 °F 55.4 °F 94% 30.32 in 4.0 mi NE 6.9 mph - 0.00 in Rain Light Rain
12:53 PM 57.9 °F 55.0 °F 90% 30.32 in 7.0 mi NNE 5.8 mph - 0.00 in   Overcast
1:45 PM 59.0 °F 55.4 °F 88% 30.31 in 3.0 mi NNE 3.5 mph - 0.00 in   Overcast
1:53 PM 59.0 °F 55.9 °F 90% 30.31 in 2.5 mi NNE 5.8 mph - 0.00 in   Overcast
2:00 PM 59.0 °F 55.4 °F 88% 30.31 in 3.0 mi NE 5.8 mph - N/A   Overcast
2:17 PM 57.2 °F 55.4 °F 94% 30.31 in 4.0 mi NE 5.8 mph - N/A   Overcast
2:51 PM 57.2 °F 55.4 °F 94% 30.30 in 3.0 mi NE 4.6 mph - N/A   Overcast
2:53 PM 57.9 °F 55.0 °F 90% 30.31 in 2.5 mi ENE 4.6 mph - N/A   Overcast
3:16 PM 59.0 °F 55.4 °F 88% 30.30 in 5.0 mi NNE 3.5 mph - 0.01 in Rain Light Rain
3:53 PM 59.0 °F 55.9 °F 90% 30.30 in 4.0 mi NNE 4.6 mph - 0.01 in   Overcast
4:53 PM 57.9 °F 55.9 °F 93% 30.31 in 9.0 mi Calm Calm - N/A   Overcast
5:48 PM 57.2 °F 55.4 °F 94% 30.31 in 9.0 mi NNE 3.5 mph - N/A   Overcast
5:53 PM 57.9 °F 55.0 °F 90% 30.31 in 9.0 mi NNE 3.5 mph - N/A   Overcast
6:53 PM 57.9 °F 55.0 °F 90% 30.32 in 8.0 mi NNW 3.5 mph - N/A   Overcast
7:53 PM 57.9 °F 55.0 °F 90% 30.33 in 8.0 mi Calm Calm - N/A   Overcast
8:53 PM 57.9 °F 55.0 °F 90% 30.33 in 7.0 mi Calm Calm - N/A   Overcast
9:30 PM 57.2 °F 55.4 °F 94% 30.33 in 5.0 mi Calm Calm - N/A   Overcast
9:53 PM 57.9 °F 55.0 °F 90% 30.34 in 4.0 mi Calm Calm - N/A   Overcast
10:29 PM 57.2 °F 55.4 °F 94% 30.34 in 4.0 mi Calm Calm - N/A   Overcast
10:38 PM 57.2 °F 55.4 °F 94% 30.34 in 4.0 mi Calm Calm - N/A   Overcast
10:45 PM 57.2 °F 55.4 °F 94% 30.34 in 3.0 mi Calm Calm - N/A   Overcast
10:53 PM 57.0 °F 55.0 °F 93% 30.34 in 3.0 mi Calm Calm - N/A   Overcast
11:34 PM 57.2 °F 55.4 °F 94% 30.34 in 2.5 mi Calm Calm - N/A   Overcast
11:42 PM 57.2 °F 55.4 °F 94% 30.34 in 3.0 mi Calm Calm - N/A   Overcast
11:53 PM 57.0 °F 55.0 °F 93% 30.34 in 4.0 mi Calm Calm - N/A   Overcast